When you browse on this site, cookies collect data to enhance your experience and personalize the content and advertising you see.
Visit our Privacy Policy to learn more. By continuing to use the site, you agree to this use of cookies and data.
  • In United Kingdom
  • List of Countries
  • For 7 days
  • Water Temperature
  • Weather Map
  • Weather Widgets
  • user-avatar
    Login

    Hourly Weather Potosi

    Today, 16 October, Wednesday

    Time Temperature Precipitation Wind Pressure Humidity
    00:00 +9°C° 0 mm 1 mps 468 mmHg 71%
    01:00 +9°C° 0 mm 1 mps 467 mmHg 72%
    02:00 +8°C° 0 mm 1 mps 467 mmHg 75%
    03:00 +8°C° 0 mm 1 mps 467 mmHg 75%
    04:00 +8°C° 0 mm 1 mps 467 mmHg 75%
    05:00 +7°C° 0 mm 1 mps 467 mmHg 76%
    06:00 +8°C° 0 mm 1 mps 467 mmHg 70%
    07:00 +9°C° 0 mm 1 mps 468 mmHg 65%
    08:00 +10°C° 0 mm 1 mps 469 mmHg 60%
    09:00 +10°C° 0 mm 2 mps 469 mmHg 53%
    10:00 +12°C° 0 mm 2 mps 470 mmHg 47%
    11:00 +14°C° 0 mm 2 mps 470 mmHg 40%
    12:00 +13°C° 0.2 mm 3 mps 470 mmHg 39%
    13:00 +14°C° 0.2 mm 4 mps 470 mmHg 38%
    14:00 +15°C° 0.2 mm 4 mps 470 mmHg 37%
    15:00 +14°C° 0.5 mm 4 mps 469 mmHg 40%
    16:00 +14°C° 0.5 mm 4 mps 468 mmHg 44%
    17:00 +13°C° 0.5 mm 4 mps 467 mmHg 47%
    18:00 +12°C° 0.2 mm 4 mps 467 mmHg 53%
    19:00 +11°C° 0.2 mm 3 mps 467 mmHg 58%
    20:00 +10°C° 0.2 mm 3 mps 468 mmHg 64%
    21:00 +10°C° 0.1 mm 3 mps 468 mmHg 66%
    22:00 +9°C° 0.1 mm 3 mps 468 mmHg 68%
    23:00 +9°C° 0.1 mm 2 mps 468 mmHg 69%

    Tomorrow, 17 October, Thursday

    Time Temperature Precipitation Wind Pressure Humidity
    00:00 +9°C° 0.1 mm 2 mps 468 mmHg 67%
    01:00 +8°C° 0.1 mm 2 mps 468 mmHg 64%
    02:00 +9°C° 0.1 mm 1 mps 467 mmHg 62%
    03:00 +9°C° 0.1 mm 1 mps 467 mmHg 58%
    04:00 +8°C° 0.1 mm 1 mps 467 mmHg 54%
    05:00 +8°C° 0.1 mm 1 mps 467 mmHg 50%
    06:00 +9°C° 0 mm 1 mps 467 mmHg 44%
    07:00 +9°C° 0 mm 1 mps 468 mmHg 39%
    08:00 +10°C° 0 mm 1 mps 469 mmHg 34%
    09:00 +10°C° 0 mm 2 mps 469 mmHg 31%
    10:00 +13°C° 0 mm 2 mps 470 mmHg 29%
    11:00 +14°C° 0 mm 2 mps 470 mmHg 27%
    12:00 +15°C° 0.1 mm 2 mps 470 mmHg 28%
    13:00 +15°C° 0.1 mm 2 mps 470 mmHg 29%
    14:00 +16°C° 0.1 mm 2 mps 470 mmHg 30%
    15:00 +14°C° 0.3 mm 3 mps 469 mmHg 33%
    16:00 +14°C° 0.3 mm 3 mps 468 mmHg 35%
    17:00 +14°C° 0.3 mm 4 mps 468 mmHg 38%
    18:00 +12°C° 0.3 mm 3 mps 468 mmHg 44%
    19:00 +11°C° 0.3 mm 3 mps 468 mmHg 49%
    20:00 +10°C° 0.3 mm 3 mps 468 mmHg 55%
    21:00 +10°C° 0.3 mm 3 mps 468 mmHg 59%
    22:00 +9°C° 0.3 mm 3 mps 468 mmHg 63%
    23:00 +8°C° 0.3 mm 3 mps 467 mmHg 67%

    Day after tomorrow, 18 October, Friday

    Time Temperature Precipitation Wind Pressure Humidity
    00:00 +8°C° 0.1 mm 3 mps 467 mmHg 69%
    01:00 +8°C° 0.1 mm 2 mps 467 mmHg 70%
    02:00 +7°C° 0.1 mm 2 mps 466 mmHg 72%
    03:00 +7°C° 0.1 mm 2 mps 466 mmHg 73%
    04:00 +7°C° 0.1 mm 2 mps 466 mmHg 74%
    05:00 +7°C° 0.1 mm 2 mps 466 mmHg 75%
    06:00 +7°C° 0.1 mm 2 mps 467 mmHg 74%
    07:00 +7°C° 0.1 mm 2 mps 467 mmHg 72%
    08:00 +8°C° 0.1 mm 2 mps 468 mmHg 70%
    09:00 +9°C° 0.3 mm 3 mps 468 mmHg 65%
    10:00 +10°C° 0.3 mm 4 mps 469 mmHg 61%
    11:00 +11°C° 0.3 mm 4 mps 469 mmHg 56%
    12:00 +10°C° 0.7 mm 5 mps 469 mmHg 55%
    13:00 +12°C° 0.7 mm 5 mps 469 mmHg 55%
    14:00 +11°C° 0.7 mm 6 mps 468 mmHg 54%
    15:00 +10°C° 1.2 mm 6 mps 467 mmHg 59%
    16:00 +9°C° 1.2 mm 5 mps 466 mmHg 64%
    17:00 +9°C° 1.2 mm 5 mps 466 mmHg 68%
    18:00 +8°C° 1.4 mm 4 mps 466 mmHg 72%
    19:00 +8°C° 1.4 mm 3 mps 466 mmHg 76%
    20:00 +8°C° 1.4 mm 2 mps 466 mmHg 79%
    21:00 +8°C° 0.7 mm 3 mps 466 mmHg 80%
    22:00 +7°C° 0.7 mm 3 mps 467 mmHg 80%
    23:00 +7°C° 0.7 mm 3 mps 468 mmHg 81%

    19 October, Saturday

    Time Temperature Precipitation Wind Pressure Humidity
    00:00 +7°C° 0.7 mm 3 mps 467 mmHg 82%
    01:00 +7°C° 0.7 mm 3 mps 467 mmHg 83%
    02:00 +5°C° 0.7 mm 3 mps 467 mmHg 84%
    03:00 +6°C° 1.6 mm 2 mps 467 mmHg 87%
    04:00 +5°C° 1.6 mm 2 mps 466 mmHg 90%
    05:00 +4°C° 1.6 mm 2 mps 466 mmHg 93%
    06:00 +4°C° 1.7 mm 2 mps 466 mmHg 89%
    07:00 +5°C° 1.7 mm 2 mps 467 mmHg 85%
    08:00 +6°C° 1.7 mm 1 mps 467 mmHg 81%
    09:00 +6°C° 0.2 mm 2 mps 467 mmHg 76%
    10:00 +7°C° 0.2 mm 2 mps 468 mmHg 72%
    11:00 +8°C° 0.2 mm 3 mps 468 mmHg 68%
    12:00 +7°C° 0.7 mm 3 mps 467 mmHg 70%
    13:00 +7°C° 0.7 mm 3 mps 466 mmHg 72%
    14:00 +7°C° 0.7 mm 3 mps 465 mmHg 73%
    15:00 +8°C° 0.1 mm 3 mps 466 mmHg 68%
    16:00 +9°C° 0.1 mm 3 mps 466 mmHg 62%
    17:00 +10°C° 0.1 mm 4 mps 467 mmHg 56%
    18:00 +9°C° 0.4 mm 3 mps 466 mmHg 62%
    19:00 +8°C° 0.4 mm 3 mps 466 mmHg 67%
    20:00 +7°C° 0.4 mm 2 mps 466 mmHg 73%
    21:00 +7°C° 0.1 mm 2 mps 466 mmHg 72%
    22:00 +7°C° 0.1 mm 2 mps 467 mmHg 71%
    23:00 +7°C° 0.1 mm 2 mps 467 mmHg 71%

    20 October, Sunday

    Time Temperature Precipitation Wind Pressure Humidity
    00:00 +7°C° 0.1 mm 2 mps 467 mmHg 68%
    01:00 +7°C° 0.1 mm 2 mps 466 mmHg 66%
    02:00 +6°C° 0.1 mm 2 mps 466 mmHg 64%
    03:00 +6°C° 0 mm 2 mps 466 mmHg 60%
    04:00 +6°C° 0 mm 2 mps 465 mmHg 56%
    05:00 +5°C° 0 mm 2 mps 465 mmHg 51%
    06:00 +6°C° 0 mm 2 mps 466 mmHg 45%
    07:00 +6°C° 0 mm 2 mps 466 mmHg 39%
    08:00 +7°C° 0 mm 2 mps 467 mmHg 33%
    09:00 +8°C° 0 mm 3 mps 468 mmHg 27%
    10:00 +10°C° 0 mm 3 mps 468 mmHg 21%
    11:00 +12°C° 0 mm 4 mps 469 mmHg 15%
    12:00 +13°C° 0 mm 4 mps 469 mmHg 15%
    13:00 +14°C° 0 mm 4 mps 469 mmHg 15%
    14:00 +14°C° 0 mm 4 mps 469 mmHg 15%
    15:00 +14°C° 0 mm 5 mps 468 mmHg 16%
    16:00 +14°C° 0 mm 5 mps 468 mmHg 17%
    17:00 +13°C° 0 mm 6 mps 467 mmHg 17%
    18:00 +12°C° 0 mm 5 mps 467 mmHg 21%
    19:00 +11°C° 0 mm 3 mps 467 mmHg 24%
    20:00 +10°C° 0 mm 2 mps 467 mmHg 28%
    21:00 +10°C° 0 mm 2 mps 467 mmHg 33%
    22:00 +9°C° 0 mm 2 mps 467 mmHg 37%
    23:00 +8°C° 0 mm 2 mps 467 mmHg 42%

    21 October, Monday

    Time Temperature Precipitation Wind Pressure Humidity
    00:00 +8°C° 0 mm 1 mps 467 mmHg 43%
    01:00 +7°C° 0 mm 1 mps 466 mmHg 43%
    02:00 +7°C° 0 mm 1 mps 465 mmHg 43%
    03:00 +6°C° 0 mm 1 mps 465 mmHg 43%
    04:00 +6°C° 0 mm 1 mps 465 mmHg 43%
    05:00 +5°C° 0 mm 1 mps 465 mmHg 43%
    06:00 +6°C° 0 mm 1 mps 465 mmHg 38%
    07:00 +7°C° 0 mm 1 mps 466 mmHg 33%
    08:00 +7°C° 0 mm 2 mps 467 mmHg 28%
    09:00 +8°C° 0 mm 2 mps 468 mmHg 23%
    10:00 +10°C° 0 mm 2 mps 469 mmHg 18%
    11:00 +13°C° 0 mm 2 mps 470 mmHg 13%
    12:00 +13°C° 0 mm 3 mps 470 mmHg 13%
    13:00 +14°C° 0 mm 4 mps 470 mmHg 13%
    14:00 +15°C° 0 mm 4 mps 470 mmHg 13%
    15:00 +14°C° 0.2 mm 4 mps 470 mmHg 19%
    16:00 +13°C° 0.2 mm 4 mps 469 mmHg 25%
    17:00 +13°C° 0.2 mm 3 mps 468 mmHg 31%
    18:00 +12°C° 0.2 mm 3 mps 468 mmHg 38%
    19:00 +10°C° 0.2 mm 3 mps 468 mmHg 46%
    20:00 +9°C° 0.2 mm 3 mps 467 mmHg 53%
    21:00 +9°C° 0 mm 2 mps 467 mmHg 60%
    22:00 +8°C° 0 mm 2 mps 467 mmHg 68%
    23:00 +7°C° 0 mm 2 mps 467 mmHg 75%
    Show more